�������l�o���
Date,Time,MP-1(��Sv/h),MP-2(��Sv/h),MP-3(��Sv/h),MP-4(��Sv/h),MP-5(��Sv/h),MP-6(��Sv/h),MP-7(��Sv/h),MP-8(��Sv/h),����,����(m/s),���J
2021/04/23,00:00,0.638,0.951,0.593,1.171,0.827,0.372,0.655,0.614,�k,6.3,��
2021/04/23,00:10,0.637,0.949,0.594,1.169,0.828,0.373,0.654,0.613,�k,6.5,��
2021/04/23,00:20,0.638,0.950,0.592,1.168,0.828,0.373,0.654,0.615,�k,7.7,��
2021/04/23,00:30,0.638,0.950,0.593,1.170,0.828,0.373,0.654,0.614,�k,6.0,��
2021/04/23,00:40,0.639,0.951,0.592,1.168,0.828,0.372,0.654,0.614,�k,7.3,��
2021/04/23,00:50,0.639,0.951,0.593,1.169,0.826,0.374,0.654,0.615,�k,8.5,��
2021/04/23,01:00,0.638,0.950,0.595,1.168,0.827,0.372,0.653,0.613,�k,6.7,��
2021/04/23,01:10,0.636,0.951,0.591,1.169,0.827,0.373,0.654,0.614,�k,6.5,��
2021/04/23,01:20,0.637,0.948,0.594,1.171,0.826,0.372,0.656,0.614,�k,5.3,��
2021/04/23,01:30,0.638,0.950,0.593,1.169,0.827,0.371,0.654,0.614,�k�k��,4.2,��
2021/04/23,01:40,0.637,0.950,0.593,1.169,0.826,0.373,0.655,0.614,�k��,4.5,��
2021/04/23,01:50,0.639,0.948,0.592,1.170,0.828,0.373,0.655,0.615,�k��,4.9,��
2021/04/23,02:00,0.638,0.950,0.593,1.170,0.826,0.372,0.655,0.615,�k�k��,4.4,��
2021/04/23,02:10,0.636,0.951,0.592,1.169,0.827,0.372,0.656,0.613,�k��,5.2,��
2021/04/23,02:20,0.636,0.949,0.592,1.171,0.825,0.371,0.655,0.614,�k��,5.4,��
2021/04/23,02:30,0.637,0.949,0.590,1.168,0.827,0.372,0.655,0.615,�k��,5.3,��
2021/04/23,02:40,0.638,0.954,0.592,1.169,0.826,0.372,0.654,0.613,�k��,4.9,��
2021/04/23,02:50,0.636,0.951,0.593,1.168,0.826,0.372,0.655,0.614,�k��,5.7,��
2021/04/23,03:00,0.635,0.950,0.593,1.168,0.828,0.373,0.654,0.613,�k��,5.3,��
2021/04/23,03:10,0.635,0.949,0.592,1.169,0.828,0.373,0.655,0.615,�k��,5.1,��
2021/04/23,03:20,0.637,0.949,0.593,1.170,0.827,0.373,0.654,0.613,�k��,5.7,��
2021/04/23,03:30,0.637,0.951,0.593,1.169,0.828,0.372,0.654,0.614,�k��,5.4,��
2021/04/23,03:40,0.636,0.950,0.592,1.168,0.826,0.371,0.655,0.613,�k��,5.4,��
2021/04/23,03:50,0.637,0.950,0.592,1.168,0.826,0.373,0.655,0.613,�k��,5.3,��
2021/04/23,04:00,0.638,0.952,0.592,1.169,0.827,0.372,0.654,0.613,�k��,5.6,��
2021/04/23,04:10,0.635,0.950,0.593,1.170,0.825,0.371,0.655,0.612,�k��,5.3,��
2021/04/23,04:20,0.635,0.953,0.592,1.167,0.826,0.372,0.655,0.613,�k��,5.2,��
2021/04/23,04:30,0.634,0.950,0.591,1.168,0.825,0.373,0.656,0.615,�k��,5.2,��
2021/04/23,04:40,0.637,0.950,0.592,1.168,0.828,0.374,0.654,0.613,�k��,4.7,��
2021/04/23,04:50,0.634,0.947,0.593,1.170,0.827,0.373,0.654,0.614,�k��,4.8,��
2021/04/23,05:00,0.636,0.950,0.591,1.170,0.827,0.372,0.654,0.613,�k��,4.5,��
2021/04/23,05:10,0.635,0.949,0.591,1.168,0.825,0.373,0.654,0.614,�k��,5.5,��
2021/04/23,05:20,0.635,0.950,0.591,1.169,0.827,0.372,0.654,0.613,�k��,4.9,��
2021/04/23,05:30,0.636,0.952,0.592,1.171,0.827,0.371,0.655,0.614,�k��,5.4,��
2021/04/23,05:40,0.636,0.949,0.593,1.169,0.827,0.372,0.655,0.614,�k�k��,4.5,��
2021/04/23,05:50,0.636,0.951,0.591,1.167,0.826,0.372,0.655,0.614,�k��,5.1,��
2021/04/23,06:00,0.636,0.950,0.595,1.168,0.824,0.374,0.656,0.613,�k�k��,4.5,��
2021/04/23,06:10,0.637,0.950,0.594,1.169,0.827,0.374,0.655,0.613,�k��,4.3,��
2021/04/23,06:20,0.634,0.947,0.593,1.169,0.827,0.372,0.656,0.614,�k��,4.1,��
2021/04/23,06:30,0.637,0.949,0.593,1.170,0.826,0.372,0.656,0.612,�k��,4.5,��
2021/04/23,06:40,0.636,0.947,0.592,1.169,0.825,0.371,0.654,0.615,�k�k��,4.4,��
2021/04/23,06:50,0.636,0.951,0.593,1.169,0.825,0.373,0.655,0.613,�k�k��,4.3,��
2021/04/23,07:00,0.637,0.951,0.593,1.171,0.825,0.374,0.657,0.614,�k�k��,4.0,��
2021/04/23,07:10,0.637,0.951,0.593,1.171,0.824,0.372,0.657,0.615,�k�k��,3.7,��
2021/04/23,07:20,0.638,0.948,0.593,1.171,0.826,0.372,0.657,0.613,�k,3.4,��
2021/04/23,07:30,0.637,0.950,0.592,1.170,0.828,0.372,0.655,0.615,�k�k��,4.2,��
2021/04/23,07:40,0.639,0.948,0.594,1.171,0.827,0.372,0.658,0.614,�k�k��,5.5,��
2021/04/23,07:50,0.636,0.946,0.593,1.170,0.829,0.372,0.655,0.615,�k�k��,5.4,��
2021/04/23,08:00,0.639,0.948,0.594,1.170,0.827,0.371,0.657,0.612,�k�k��,5.3,��
2021/04/23,08:10,0.637,0.949,0.594,1.172,0.827,0.373,0.658,0.614,�k�k��,5.1,��
2021/04/23,08:20,0.638,0.945,0.594,1.169,0.828,0.372,0.657,0.615,�k�k��,5.8,��
2021/04/23,08:30,0.639,0.946,0.593,1.169,0.827,0.368,0.656,0.614,�k�k��,6.4,��
2021/04/23,08:40,0.638,0.943,0.596,1.170,0.828,0.366,0.657,0.614,�k�k��,6.9,��
2021/04/23,08:50,0.638,0.945,0.594,1.171,0.828,0.367,0.656,0.612,�k�k��,7.7,��
2021/04/23,09:00,0.639,0.946,0.592,1.171,0.828,0.368,0.655,0.612,�k�k��,7.4,��
2021/04/23,09:10,0.639,0.946,0.593,1.170,0.828,0.372,0.654,0.613,�k�k��,7.5,��
2021/04/23,09:20,0.638,0.945,0.594,1.171,0.830,0.372,0.655,0.611,�k�k��,7.6,��
2021/04/23,09:30,0.638,0.945,0.595,1.171,0.829,0.372,0.654,0.612,�k�k��,8.3,��
2021/04/23,09:40,0.637,0.946,0.594,1.173,0.828,0.371,0.654,0.612,�k�k��,7.2,��
2021/04/23,09:50,0.638,0.944,0.594,1.171,0.828,0.370,0.655,0.613,�k�k��,7.7,��
2021/04/23,10:00,0.639,0.946,0.593,1.170,0.828,0.371,0.657,0.612,�k�k��,7.3,��
2021/04/23,10:10,0.639,0.945,0.589,1.170,0.827,0.372,0.654,0.611,�k�k��,8.3,��
2021/04/23,10:20,0.638,0.945,0.592,1.173,0.830,0.372,0.654,0.610,�k�k��,7.8,��
2021/04/23,10:30,0.638,0.946,0.593,1.170,0.819,0.371,0.656,0.612,�k�k��,7.0,��
2021/04/23,10:40,0.638,0.948,0.594,1.172,0.817,0.372,0.655,0.613,�k�k��,7.0,��
2021/04/23,10:50,0.637,0.946,0.592,1.173,0.819,0.372,0.654,0.613,�k�k��,6.7,��
2021/04/23,11:00,0.639,0.946,0.593,1.170,0.825,0.372,0.654,0.612,�k�k��,6.9,��
2021/04/23,11:10,0.638,0.947,0.592,1.171,0.827,0.373,0.656,0.613,�k�k��,6.2,��
2021/04/23,11:20,0.639,0.947,0.590,1.172,0.829,0.372,0.654,0.613,�k��,5.5,��
2021/04/23,11:30,0.638,0.949,0.593,1.171,0.828,0.372,0.655,0.612,�k��,4.6,��
2021/04/23,11:40,0.637,0.950,0.593,1.174,0.829,0.372,0.654,0.612,�k��,4.4,��
2021/04/23,11:50,0.637,0.950,0.595,1.172,0.826,0.373,0.655,0.611,�k��,5.0,��
2021/04/23,12:00,0.637,0.949,0.593,1.171,0.828,0.369,0.655,0.611,�k�k��,4.7,��
2021/04/23,12:10,0.639,0.950,0.593,1.168,0.827,0.373,0.656,0.613,�k�k��,5.1,��
2021/04/23,12:20,0.639,0.950,0.592,1.171,0.830,0.372,0.654,0.612,�k��,4.7,��
2021/04/23,12:30,0.639,0.950,0.594,1.171,0.831,0.372,0.655,0.612,�k�k��,4.9,��
2021/04/23,12:40,0.638,0.949,0.593,1.173,0.829,0.373,0.656,0.612,�k��,5.9,��
2021/04/23,12:50,0.638,0.947,0.594,1.172,0.831,0.371,0.655,0.613,�k��,5.5,��
2021/04/23,13:00,0.638,0.948,0.593,1.173,0.830,0.372,0.657,0.614,�k�k��,5.9,��
2021/04/23,13:10,0.640,0.950,0.592,1.175,0.830,0.373,0.657,0.612,�k��,5.7,��
2021/04/23,13:20,0.639,0.949,0.593,1.173,0.831,0.372,0.656,0.611,�k�k��,5.1,��
2021/04/23,13:30,0.639,0.949,0.593,1.176,0.831,0.373,0.655,0.612,�k�k��,5.1,��
2021/04/23,13:40,0.640,0.949,0.593,1.173,0.832,0.374,0.655,0.612,�k�k��,4.6,��
2021/04/23,13:50,0.639,0.950,0.593,1.173,0.830,0.371,0.657,0.612,�k��,4.5,��
2021/04/23,14:00,0.639,0.950,0.594,1.172,0.832,0.372,0.657,0.613,�k��,4.0,��
2021/04/23,14:10,0.637,0.950,0.593,1.174,0.829,0.372,0.657,0.612,�k��,3.6,��
2021/04/23,14:20,0.639,0.950,0.594,1.173,0.830,0.373,0.657,0.615,�k��,3.7,��
2021/04/23,14:30,0.640,0.949,0.593,1.175,0.832,0.371,0.655,0.614,�k��,3.6,��
2021/04/23,14:40,0.638,0.950,0.593,1.173,0.831,0.373,0.656,0.613,�k��,4.1,��
2021/04/23,14:50,0.639,0.950,0.595,1.175,0.832,0.373,0.655,0.613,���k��,4.0,��
2021/04/23,15:00,0.639,0.950,0.594,1.174,0.831,0.373,0.656,0.614,���k��,3.3,��
2021/04/23,15:10,0.639,0.953,0.592,1.173,0.831,0.373,0.656,0.613,�k�k��,2.7,��
2021/04/23,15:20,0.641,0.950,0.593,1.171,0.831,0.374,0.656,0.613,�k,2.4,��
2021/04/23,15:30,0.640,0.949,0.593,1.169,0.832,0.373,0.659,0.614,�k�k��,2.1,��
2021/04/23,15:40,0.638,0.951,0.594,1.169,0.831,0.374,0.657,0.612,���k��,2.2,��
2021/04/23,15:50,0.639,0.954,0.596,1.170,0.830,0.373,0.656,0.611,��,2.5,��
2021/04/23,16:00,0.638,0.953,0.594,1.171,0.831,0.375,0.656,0.614,���쓌,1.8,��
2021/04/23,16:10,0.640,0.953,0.593,1.170,0.832,0.375,0.656,0.612,���쓌,2.5,��
2021/04/23,16:20,0.639,0.951,0.595,1.169,0.832,0.374,0.656,0.613,�쓌,2.4,��
2021/04/23,16:30,0.638,0.952,0.595,1.170,0.833,0.374,0.655,0.612,���k��,2.5,��
2021/04/23,16:40,0.640,0.953,0.593,1.169,0.833,0.373,0.655,0.612,���k��,2.8,��
2021/04/23,16:50,0.639,0.954,0.595,1.169,0.834,0.374,0.656,0.614,���k��,2.6,��
2021/04/23,17:00,0.640,0.956,0.592,1.174,0.830,0.374,0.656,0.615,�k��,2.8,��
2021/04/23,17:10,0.639,0.955,0.594,1.168,0.831,0.375,0.658,0.616,�k��,3.1,��
2021/04/23,17:20,0.640,0.955,0.596,1.171,0.830,0.375,0.655,0.615,�k��,4.2,��
2021/04/23,17:30,0.641,0.957,0.595,1.171,0.830,0.375,0.656,0.616,�k�k��,3.7,��
2021/04/23,17:40,0.639,0.954,0.594,1.172,0.830,0.373,0.656,0.617,�k��,3.6,��
2021/04/23,17:50,0.641,0.953,0.595,1.172,0.831,0.375,0.655,0.615,�k��,3.7,��
2021/04/23,18:00,0.642,0.954,0.593,1.173,0.833,0.376,0.654,0.614,�k�k��,3.0,��
2021/04/23,18:10,0.639,0.956,0.591,1.174,0.833,0.375,0.654,0.615,�k�k��,2.9,��
2021/04/23,18:20,0.641,0.956,0.595,1.175,0.831,0.375,0.655,0.615,�k�k��,2.9,��
2021/04/23,18:30,0.640,0.953,0.596,1.175,0.832,0.375,0.657,0.614,�k�k��,2.9,��
2021/04/23,18:40,0.640,0.957,0.595,1.174,0.832,0.374,0.657,0.616,�k�k��,2.1,��
2021/04/23,18:50,0.640,0.954,0.595,1.173,0.832,0.374,0.656,0.615,�k,3.2,��
2021/04/23,19:00,0.641,0.953,0.594,1.174,0.834,0.374,0.658,0.616,�k,2.6,��
2021/04/23,19:10,0.639,0.953,0.597,1.174,0.834,0.373,0.658,0.615,�k�k��,3.2,��
2021/04/23,19:20,0.641,0.955,0.594,1.174,0.832,0.375,0.657,0.615,�k�k��,3.5,��
2021/04/23,19:30,0.640,0.955,0.595,1.176,0.830,0.374,0.657,0.614,�k�k��,3.7,��
2021/04/23,19:40,0.639,0.956,0.596,1.174,0.833,0.374,0.657,0.615,�k�k��,4.5,��
2021/04/23,19:50,0.638,0.956,0.594,1.174,0.831,0.374,0.657,0.614,�k��,3.4,��
2021/04/23,20:00,0.639,0.954,0.592,1.175,0.831,0.372,0.657,0.614,�k�k��,4.3,��
2021/04/23,20:10,0.640,0.955,0.594,1.175,0.835,0.373,0.657,0.615,�k��,4.2,��
2021/04/23,20:20,0.640,0.956,0.596,1.175,0.833,0.373,0.658,0.615,�k��,4.3,��
2021/04/23,20:30,0.639,0.954,0.596,1.176,0.831,0.373,0.658,0.613,�k��,4.7,��
2021/04/23,20:40,0.640,0.957,0.595,1.173,0.832,0.373,0.657,0.614,�k��,5.1,��
2021/04/23,20:50,0.639,0.955,0.594,1.176,0.832,0.373,0.657,0.614,�k��,4.6,��
2021/04/23,21:00,0.638,0.953,0.594,1.173,0.832,0.372,0.656,0.614,�k��,4.9,��
2021/04/23,21:10,0.639,0.955,0.593,1.175,0.832,0.375,0.657,0.615,�k��,4.6,��
2021/04/23,21:20,0.638,0.954,0.595,1.173,0.834,0.375,0.657,0.614,�k��,4.5,��
2021/04/23,21:30,0.638,0.955,0.593,1.174,0.832,0.373,0.658,0.613,�k��,4.9,��
2021/04/23,21:40,0.639,0.955,0.596,1.172,0.833,0.372,0.658,0.614,�k��,4.5,��
2021/04/23,21:50,0.640,0.953,0.595,1.173,0.832,0.373,0.658,0.613,�k��,5.5,��
2021/04/23,22:00,0.638,0.955,0.595,1.174,0.830,0.373,0.657,0.614,�k��,4.6,��
2021/04/23,22:10,0.638,0.957,0.594,1.174,0.833,0.374,0.658,0.614,�k��,5.0,��
2021/04/23,22:20,0.640,0.955,0.595,1.171,0.833,0.373,0.657,0.614,�k��,4.6,��
2021/04/23,22:30,0.638,0.953,0.595,1.176,0.832,0.373,0.656,0.614,�k��,4.6,��
2021/04/23,22:40,0.639,0.953,0.594,1.174,0.831,0.374,0.656,0.613,�k��,4.4,��
2021/04/23,22:50,0.638,0.957,0.596,1.173,0.832,0.374,0.657,0.614,�k��,3.8,��
2021/04/23,23:00,0.640,0.956,0.595,1.175,0.831,0.372,0.658,0.614,���k��,3.8,��
2021/04/23,23:10,0.639,0.954,0.594,1.175,0.833,0.372,0.656,0.614,���k��,3.6,��
2021/04/23,23:20,0.638,0.954,0.595,1.174,0.833,0.373,0.656,0.616,���k��,3.4,��
2021/04/23,23:30,0.637,0.952,0.594,1.173,0.833,0.374,0.656,0.615,��,2.9,��
2021/04/23,23:40,0.639,0.955,0.595,1.176,0.832,0.373,0.656,0.616,��,3.9,��
2021/04/23,23:50,0.639,0.952,0.595,1.172,0.831,0.374,0.656,0.615,���k��,3.0,��
